| time (UTC) | temp C | wind direction | speed KPH | gust KPH | rain 1hr cm | rain 24hr cm | rain mn cm | humidity % | barometer mb |
| 20260504202446 | 24 | 155 | 9.7 | 17.7 | 0.00 | 0.00 | 0.00 | 36 | 1010.0 |
| 20260504201943 | 23 | 152 | 3.2 | 9.7 | 0.00 | 0.00 | 0.00 | 38 | 1010.1 |
| 20260504201440 | 24 | 182 | 3.2 | 11.3 | 0.00 | 0.00 | 0.00 | 37 | 1010.0 |
| 20260504200938 | 25 | 314 | 3.2 | 16.1 | 0.00 | 0.00 | 0.00 | 39 | 1010.1 |
| 20260504200435 | 25 | 137 | 4.8 | 11.3 | 0.00 | 0.00 | 0.00 | 36 | 1010.2 |
| 20260504195931 | 25 | 151 | 6.4 | 12.9 | 0.00 | 0.00 | 0.00 | 36 | 1010.2 |
| 20260504195427 | 24 | 259 | 3.2 | 9.7 | 0.00 | 0.00 | 0.00 | 34 | 1010.3 |
| 20260504194924 | 23 | 142 | 8.0 | 9.7 | 0.00 | 0.00 | 0.00 | 36 | 1010.4 |
| 20260504194420 | 24 | 88 | 9.7 | 16.1 | 0.00 | 0.00 | 0.00 | 34 | 1010.8 |
| 20260504193916 | 25 | 205 | 14.5 | 22.5 | 0.00 | 0.00 | 0.00 | 37 | 1010.7 |
| 20260504193414 | 24 | 162 | 8.0 | 16.1 | 0.00 | 0.00 | 0.00 | 38 | 1010.8 |
| 20260504192912 | 24 | 134 | 14.5 | 14.5 | 0.00 | 0.00 | 0.00 | 35 | 1010.7 |
| 20260504192409 | 23 | 183 | 6.4 | 17.7 | 0.00 | 0.00 | 0.00 | 36 | 1010.9 |
| 20260504191908 | 24 | 129 | 12.9 | 20.9 | 0.00 | 0.00 | 0.00 | 34 | 1010.9 |
| 20260504191405 | 24 | 6 | 1.6 | 14.5 | 0.00 | 0.00 | 0.00 | 42 | 1010.8 |
| 20260504190900 | 24 | 112 | 6.4 | 9.7 | 0.00 | 0.00 | 0.00 | 37 | 1011.2 |
| 20260504190356 | 24 | 157 | 11.3 | 16.1 | 0.00 | 0.00 | 0.00 | 36 | 1011.2 |
| 20260504185853 | 24 | 313 | 6.4 | 11.3 | 0.00 | 0.00 | 0.00 | 38 | 1011.3 |
| 20260504185350 | 23 | 132 | 3.2 | 11.3 | 0.00 | 0.00 | 0.00 | 39 | 1011.4 |
| 20260504184846 | 23 | 96 | 12.9 | 16.1 | 0.00 | 0.00 | 0.00 | 35 | 1011.2 |
| 20260504184342 | 23 | 42 | 3.2 | 11.3 | 0.00 | 0.00 | 0.00 | 38 | 1011.5 |
| 20260504183838 | 23 | 136 | 3.2 | 16.1 | 0.00 | 0.00 | 0.00 | 36 | 1011.6 |
| 20260504183336 | 23 | 162 | 4.8 | 12.9 | 0.00 | 0.00 | 0.00 | 40 | 1011.5 |
| 20260504182833 | 22 | 120 | 3.2 | 14.5 | 0.00 | 0.00 | 0.00 | 38 | 1011.8 |
| 20260504182331 | 22 | 151 | 6.4 | 12.9 | 0.00 | 0.00 | 0.00 | 39 | 1011.8 |
| 20260504181827 | 23 | 135 | 9.7 | 20.9 | 0.00 | 0.00 | 0.00 | 37 | 1011.6 |
| 20260504181325 | 22 | 168 | 1.6 | 11.3 | 0.00 | 0.00 | 0.00 | 37 | 1011.7 |
| 20260504180824 | 23 | 184 | 9.7 | 17.7 | 0.00 | 0.00 | 0.00 | 35 | 1011.7 |
| 20260504180322 | 23 | 155 | 6.4 | 6.4 | 0.00 | 0.00 | 0.00 | 35 | 1011.5 |
| 20260504175820 | 24 | 97 | 11.3 | 14.5 | 0.00 | 0.00 | 0.00 | 36 | 1011.9 |
| 20260504175316 | 23 | 95 | 8.0 | 12.9 | 0.00 | 0.00 | 0.00 | 35 | 1011.6 |
| 20260504174814 | 23 | 84 | 4.8 | 12.9 | 0.00 | 0.00 | 0.00 | 37 | 1011.7 |
| 20260504174311 | 24 | 154 | 9.7 | 14.5 | 0.00 | 0.00 | 0.00 | 35 | 1011.9 |
| 20260504173808 | 23 | 133 | 3.2 | 6.4 | 0.00 | 0.00 | 0.00 | 35 | 1012.0 |
| 20260504173305 | 23 | 190 | 1.6 | 11.3 | 0.00 | 0.00 | 0.00 | 35 | 1011.9 |
| 20260504172802 | 22 | 77 | 4.8 | 14.5 | 0.00 | 0.00 | 0.00 | 36 | 1012.3 |
| 20260504172259 | 23 | 188 | 4.8 | 6.4 | 0.00 | 0.00 | 0.00 | 37 | 1012.3 |
| 20260504171754 | 23 | 158 | 11.3 | 14.5 | 0.00 | 0.00 | 0.00 | 34 | 1012.3 |
| 20260504171252 | 23 | 42 | 1.6 | 16.1 | 0.00 | 0.00 | 0.00 | 34 | 1012.2 |
| 20260504170749 | 23 | 226 | 4.8 | 16.1 | 0.00 | 0.00 | 0.00 | 35 | 1012.2 |
| 20260504170246 | 23 | 223 | 8.0 | 11.3 | 0.00 | 0.00 | 0.00 | 36 | 1012.3 |
| 20260504160204 | 22 | 135 | 9.7 | 14.5 | 0.00 | 0.00 | 0.00 | 38 | 1013.4 |
| 20260504151132 | 20 | 147 | 6.4 | 11.3 | 0.00 | 0.00 | 0.00 | 39 | 1014.1 |
| 20260504150630 | 20 | 187 | 4.8 | 12.9 | 0.00 | 0.00 | 0.00 | 40 | 1014.2 |
| 20260504150126 | 20 | 152 | 11.3 | 14.5 | 0.00 | 0.00 | 0.00 | 38 | 1014.1 |
| 20260504141055 | 18 | 144 | 6.4 | 11.3 | 0.00 | 0.00 | 0.00 | 45 | 1014.3 |
| 20260504140551 | 18 | 142 | 8.0 | 12.9 | 0.00 | 0.00 | 0.00 | 41 | 1014.4 |
| 20260504130516 | 14 | 98 | 1.6 | 6.4 | 0.00 | 0.00 | 0.00 | 52 | 1015.4 |
| 20260504110403 | 7 | 156 | 1.6 | 1.6 | 0.00 | 0.00 | 0.00 | 72 | 1016.0 |
| 20260504100320 | 7 | 160 | 0.0 | 4.8 | 0.00 | 0.00 | 0.00 | 67 | 1015.7 |
| 20260504081714 | 7 | 219 | 0.0 | 1.6 | 0.00 | 0.00 | 0.00 | 66 | 1016.1 |
| 20260504081210 | 7 | 232 | 0.0 | 3.2 | 0.00 | 0.00 | 0.00 | 65 | 1016.4 |
| 20260504080707 | 7 | 260 | 1.6 | 4.8 | 0.00 | 0.00 | 0.00 | 66 | 1016.2 |
| 20260504080203 | 7 | 260 | 1.6 | 4.8 | 0.00 | 0.00 | 0.00 | 66 | 1016.2 |
| 20260504070131 | 7 | 127 | 0.0 | 1.6 | 0.00 | 0.00 | 0.00 | 68 | 1016.4 |
| 20260504050519 | 7 | 203 | 1.6 | 3.2 | 0.00 | 0.00 | 0.00 | 65 | 1017.0 |
| 20260504050017 | 7 | 218 | 1.6 | 1.6 | 0.00 | 0.00 | 0.00 | 67 | 1017.1 |
| 20260504045513 | 6 | 206 | 0.0 | 1.6 | 0.00 | 0.00 | 0.00 | 68 | 1017.0 |
| 20260504045009 | 6 | 208 | 0.0 | 0.0 | 0.00 | 0.00 | 0.00 | 69 | 1017.0 |
| 20260504044507 | 6 | 203 | 1.6 | 1.6 | 0.00 | 0.00 | 0.00 | 70 | 1017.1 |
| 20260504044004 | 6 | 235 | 1.6 | 1.6 | 0.00 | 0.00 | 0.00 | 70 | 1017.1 |
| 20260504043500 | 6 | 203 | 0.0 | 0.0 | 0.00 | 0.00 | 0.00 | 70 | 1017.1 |
| 20260504042958 | 6 | 191 | 0.0 | 1.6 | 0.00 | 0.00 | 0.00 | 69 | 1017.0 |
| 20260504042454 | 7 | 201 | 0.0 | 3.2 | 0.00 | 0.00 | 0.00 | 68 | 1017.0 |
| 20260504041951 | 7 | 190 | 0.0 | 0.0 | 0.00 | 0.00 | 0.00 | 69 | 1016.8 |
| 20260504041447 | 7 | 178 | 1.6 | 3.2 | 0.00 | 0.00 | 0.00 | 65 | 1017.0 |
| 20260504040943 | 7 | 229 | 0.0 | 3.2 | 0.00 | 0.00 | 0.00 | 62 | 1017.2 |
| 20260504040441 | 7 | 217 | 3.2 | 4.8 | 0.00 | 0.00 | 0.00 | 59 | 1017.2 |
| 20260504035937 | 7 | 221 | 1.6 | 4.8 | 0.00 | 0.00 | 0.00 | 59 | 1017.1 |
| 20260504035435 | 7 | 189 | 4.8 | 6.4 | 0.00 | 0.00 | 0.00 | 63 | 1017.0 |
| 20260504034931 | 6 | 206 | 1.6 | 4.8 | 0.00 | 0.00 | 0.00 | 66 | 1017.1 |
| 20260504034429 | 6 | 218 | 0.0 | 1.6 | 0.00 | 0.00 | 0.00 | 70 | 1017.1 |
| 20260504033925 | 6 | 201 | 0.0 | 0.0 | 0.00 | 0.00 | 0.00 | 68 | 1017.2 |
| 20260504033423 | 6 | 244 | 1.6 | 4.8 | 0.00 | 0.00 | 0.00 | 68 | 1017.1 |
| 20260504032920 | 6 | 202 | 0.0 | 0.0 | 0.00 | 0.00 | 0.00 | 71 | 1016.9 |
| 20260504032417 | 5 | 151 | 0.0 | 0.0 | 0.00 | 0.00 | 0.00 | 71 | 1017.3 |
| 20260504031914 | 5 | 153 | 0.0 | 0.0 | 0.00 | 0.00 | 0.00 | 71 | 1017.1 |
| 20260504031411 | 5 | 178 | 0.0 | 1.6 | 0.00 | 0.00 | 0.00 | 70 | 1017.1 |
| 20260504030907 | 5 | 238 | 0.0 | 0.0 | 0.00 | 0.00 | 0.00 | 70 | 1017.0 |
| 20260504030404 | 5 | 244 | 0.0 | 0.0 | 0.00 | 0.00 | 0.00 | 70 | 1017.1 |
| 20260504025900 | 5 | 238 | 0.0 | 0.0 | 0.00 | 0.00 | 0.00 | 70 | 1017.1 |
| 20260504025357 | 5 | 197 | 0.0 | 0.0 | 0.00 | 0.00 | 0.00 | 70 | 1017.2 |
| 20260504024854 | 5 | 212 | 0.0 | 0.0 | 0.00 | 0.00 | 0.00 | 70 | 1016.9 |
| 20260504024350 | 5 | 215 | 1.6 | 1.6 | 0.00 | 0.00 | 0.00 | 71 | 1017.1 |
| 20260504023847 | 5 | 196 | 1.6 | 3.2 | 0.00 | 0.00 | 0.00 | 71 | 1017.1 |
| 20260504023344 | 5 | 213 | 0.0 | 0.0 | 0.00 | 0.00 | 0.00 | 71 | 1017.1 |
| 20260504022839 | 5 | 231 | 0.0 | 0.0 | 0.00 | 0.00 | 0.00 | 67 | 1017.0 |
| 20260504022337 | 5 | 262 | 0.0 | 1.6 | 0.00 | 0.00 | 0.00 | 67 | 1016.9 |
| 20260504021833 | 5 | 227 | 1.6 | 1.6 | 0.00 | 0.00 | 0.00 | 68 | 1017.1 |
| 20260504021331 | 6 | 207 | 0.0 | 0.0 | 0.00 | 0.00 | 0.00 | 66 | 1017.1 |
| 20260504020828 | 6 | 243 | 1.6 | 1.6 | 0.00 | 0.00 | 0.00 | 65 | 1017.2 |
| 20260504020324 | 6 | 214 | 0.0 | 0.0 | 0.00 | 0.00 | 0.00 | 63 | 1017.0 |
| 20260504015820 | 6 | 210 | 0.0 | 3.2 | 0.00 | 0.00 | 0.00 | 62 | 1016.8 |
| 20260504015317 | 6 | 261 | 0.0 | 0.0 | 0.00 | 0.00 | 0.00 | 63 | 1016.6 |
| 20260504014814 | 6 | 223 | 0.0 | 0.0 | 0.00 | 0.00 | 0.00 | 63 | 1016.8 |
| 20260504014309 | 6 | 229 | 0.0 | 0.0 | 0.00 | 0.00 | 0.00 | 65 | 1016.5 |
| 20260504013807 | 7 | 207 | 0.0 | 0.0 | 0.00 | 0.00 | 0.00 | 63 | 1016.3 |
| 20260504013305 | 7 | 200 | 0.0 | 0.0 | 0.00 | 0.00 | 0.00 | 61 | 1016.3 |
| 20260504012800 | 7 | 263 | 1.6 | 3.2 | 0.00 | 0.00 | 0.00 | 57 | 1016.3 |
| 20260504012259 | 8 | 259 | 1.6 | 3.2 | 0.00 | 0.00 | 0.00 | 54 | 1015.9 |
| 20260504011755 | 8 | 201 | 1.6 | 4.8 | 0.00 | 0.00 | 0.00 | 53 | 1016.1 |
| 20260504011252 | 8 | 225 | 3.2 | 4.8 | 0.00 | 0.00 | 0.00 | 52 | 1016.1 |
| 20260504010748 | 8 | 249 | 1.6 | 3.2 | 0.00 | 0.00 | 0.00 | 55 | 1016.0 |
| 20260504010243 | 8 | 221 | 3.2 | 4.8 | 0.00 | 0.00 | 0.00 | 52 | 1015.8 |
| 20260504005741 | 9 | 286 | 3.2 | 6.4 | 0.00 | 0.00 | 0.00 | 50 | 1016.0 |
| 20260504005238 | 9 | 227 | 4.8 | 6.4 | 0.00 | 0.00 | 0.00 | 50 | 1015.9 |
| 20260504004736 | 10 | 260 | 0.0 | 3.2 | 0.00 | 0.00 | 0.00 | 46 | 1015.7 |
| 20260504004232 | 10 | 266 | 6.4 | 12.9 | 0.00 | 0.00 | 0.00 | 45 | 1015.8 |
| 20260504003729 | 10 | 232 | 3.2 | 9.7 | 0.00 | 0.00 | 0.00 | 44 | 1015.6 |
| 20260504003226 | 10 | 269 | 1.6 | 3.2 | 0.00 | 0.00 | 0.00 | 47 | 1015.7 |
| 20260504002723 | 10 | 264 | 1.6 | 3.2 | 0.00 | 0.00 | 0.00 | 46 | 1015.6 |
| 20260504002219 | 10 | 260 | 3.2 | 11.3 | 0.00 | 0.00 | 0.00 | 45 | 1015.7 |
| 20260504001718 | 11 | 253 | 6.4 | 11.3 | 0.00 | 0.00 | 0.00 | 43 | 1015.6 |
| 20260504001214 | 11 | 273 | 9.7 | 12.9 | 0.00 | 0.00 | 0.00 | 42 | 1015.7 |
| 20260504000711 | 11 | 284 | 1.6 | 1.6 | 0.00 | 0.00 | 0.00 | 45 | 1015.6 |
| 20260504000208 | 11 | 242 | 6.4 | 9.7 | 0.00 | 0.00 | 0.00 | 42 | 1015.7 |
| 20260503235706 | 11 | 268 | 4.8 | 6.4 | 0.00 | 0.00 | 0.00 | 43 | 1015.6 |
| 20260503235203 | 11 | 287 | 6.4 | 9.7 | 0.00 | 0.00 | 0.00 | 40 | 1015.6 |
| 20260503234700 | 11 | 260 | 3.2 | 4.8 | 0.00 | 0.00 | 0.00 | 45 | 1015.7 |
| 20260503234159 | 11 | 255 | 3.2 | 4.8 | 0.00 | 0.00 | 0.00 | 48 | 1015.4 |
| 20260503233655 | 11 | 253 | 3.2 | 3.2 | 0.00 | 0.00 | 0.00 | 50 | 1015.6 |
| 20260503233151 | 11 | 246 | 3.2 | 3.2 | 0.00 | 0.00 | 0.00 | 45 | 1015.6 |
| 20260503232648 | 11 | 278 | 3.2 | 3.2 | 0.00 | 0.00 | 0.00 | 46 | 1015.5 |
| 20260503232145 | 12 | 249 | 3.2 | 3.2 | 0.00 | 0.00 | 0.00 | 44 | 1015.5 |
| 20260503231643 | 12 | 247 | 3.2 | 4.8 | 0.00 | 0.00 | 0.00 | 39 | 1015.5 |
| 20260503231139 | 12 | 266 | 3.2 | 4.8 | 0.00 | 0.00 | 0.00 | 38 | 1015.6 |
| 20260503230636 | 12 | 244 | 3.2 | 3.2 | 0.00 | 0.00 | 0.00 | 43 | 1015.5 |
| 20260503230133 | 12 | 235 | 1.6 | 3.2 | 0.00 | 0.00 | 0.00 | 34 | 1015.4 |
| 20260503225631 | 12 | 236 | 3.2 | 3.2 | 0.00 | 0.00 | 0.00 | 36 | 1015.5 |
| 20260503225130 | 12 | 266 | 1.6 | 3.2 | 0.00 | 0.00 | 0.00 | 38 | 1015.3 |
| 20260503224628 | 12 | 243 | 3.2 | 4.8 | 0.00 | 0.00 | 0.00 | 33 | 1015.4 |
| 20260503224126 | 12 | 207 | 1.6 | 3.2 | 0.00 | 0.00 | 0.00 | 36 | 1015.3 |
| 20260503223624 | 12 | 246 | 3.2 | 3.2 | 0.00 | 0.00 | 0.00 | 35 | 1015.4 |
| 20260503223119 | 12 | 261 | 3.2 | 3.2 | 0.00 | 0.00 | 0.00 | 37 | 1015.3 |
| 20260503222617 | 12 | 301 | 3.2 | 3.2 | 0.00 | 0.00 | 0.00 | 36 | 1015.5 |
| 20260503222115 | 13 | 282 | 3.2 | 3.2 | 0.00 | 0.00 | 0.00 | 36 | 1015.4 |
| 20260503221613 | 14 | 130 | 0.0 | 1.6 | 0.00 | 0.00 | 0.00 | 34 | 1015.6 |
| 20260503221110 | 14 | 282 | 3.2 | 4.8 | 0.00 | 0.00 | 0.00 | 33 | 1015.5 |
| 20260503220607 | 14 | 60 | 8.0 | 9.7 | 0.00 | 0.00 | 0.00 | 28 | 1015.4 |
| 20260503220103 | 15 | 125 | 1.6 | 6.4 | 0.00 | 0.00 | 0.00 | 28 | 1015.4 |
| 20260503215600 | 17 | 167 | 6.4 | 9.7 | 0.00 | 0.00 | 0.00 | 25 | 1015.5 |
| 20260503215057 | 17 | 83 | 0.0 | 3.2 | 0.00 | 0.00 | 0.00 | 24 | 1015.4 |
| 20260503214555 | 18 | 232 | 6.4 | 9.7 | 0.00 | 0.00 | 0.00 | 25 | 1015.7 |
| 20260503214051 | 18 | 273 | 1.6 | 3.2 | 0.00 | 0.00 | 0.00 | 24 | 1015.5 |
| 20260503213550 | 17 | 239 | 0.0 | 3.2 | 0.00 | 0.00 | 0.00 | 25 | 1015.5 |
| 20260503213046 | 17 | 190 | 3.2 | 4.8 | 0.00 | 0.00 | 0.00 | 30 | 1015.5 |
| 20260503212544 | 16 | 220 | 6.4 | 9.7 | 0.00 | 0.00 | 0.00 | 28 | 1015.6 |
| 20260503212042 | 16 | 106 | 6.4 | 6.4 | 0.00 | 0.00 | 0.00 | 28 | 1015.6 |
| 20260503211538 | 17 | 278 | 8.0 | 11.3 | 0.00 | 0.00 | 0.00 | 24 | 1015.7 |
| 20260503211033 | 16 | 194 | 4.8 | 12.9 | 0.00 | 0.00 | 0.00 | 29 | 1015.5 |
| 20260503210531 | 16 | 22 | 4.8 | 11.3 | 0.00 | 0.00 | 0.00 | 28 | 1015.5 |
| 20260503210026 | 18 | 192 | 1.6 | 11.3 | 0.00 | 0.00 | 0.00 | 27 | 1015.6 |
| 20260503205523 | 16 | 94 | 3.2 | 3.2 | 0.00 | 0.00 | 0.00 | 30 | 1015.8 |
| 20260503205020 | 16 | 93 | 4.8 | 6.4 | 0.00 | 0.00 | 0.00 | 27 | 1015.9 |
| 20260503204517 | 16 | 149 | 6.4 | 11.3 | 0.00 | 0.00 | 0.00 | 31 | 1015.6 |
| 20260503204014 | 15 | 107 | 6.4 | 11.3 | 0.00 | 0.00 | 0.00 | 28 | 1015.9 |
| 20260503203511 | 16 | 161 | 3.2 | 16.1 | 0.00 | 0.00 | 0.00 | 30 | 1015.8 |
| 20260503203008 | 16 | 352 | 3.2 | 11.3 | 0.00 | 0.00 | 0.00 | 31 | 1016.0 |